STARLINK-11155, 60046

Orbit data source: Space-Track

STARLINK-11155, 60046 is a payload satellite owned by SpaceX/Seattle (US) in LEO that was launched on Sat, 08 Jun 2024 UTC via an FALCON 9 launch vehicle from the Air Force Western Test Range (AFWTR). Payload-class satellites include a variety of spacecraft equipped with specific instruments for various scientific and technological missions. These include communications satellites like Starlink; space stations such as the ISS; scientific satellites like the Hubble; Earth observation satellites from companies like Planet Labs, Umbra, and HawkEye 360; GPS; miniature CubeSats for education and research; and military/defense satellites.

Loading next visibility...
Identifier
60046, 2024-112J
Orbit
LEO
Country
Flag of USUS
Related business
Manufacturer
SpaceX/Seattle
Mission
Operational Commercial Communications
Bus & Motor
STARLINK V2MD, Unknown motor
Mass
960 kg wet, ~910 kg dry
Launch date (UTC)
2024-06-08 (2 years ago)
Launch vehicle
FALCON 9
Launch site
Air Force Western Test Range (AFWTR)
Object type
Payload
Rocket body
Debris
Shape & HBR
Box + 2 Pan, 18.1 m
Radar Cross Section
36.964 m², Large (>1 m²)

Expand to show TLE details & history
Last TLE update: 2 days ago

TLE from 2 days ago
0 STARLINK-11155
1 60046U 24112J   26170.24832794  .00000172  00000-0  62844-5 0  9990
2 60046  53.1579 125.4968 0001306  90.5378 269.5790 15.69704689116938
Epoch: 2026-06-19T05:57Z
TLE epoch observation values (Epoch: 2026-06-19T05:57:35.534Z)
Latitude
-0.00001°
Longitude
128.61871°
Altitude
360.663 km
Speed
7.694 km/s
True Right ascension
08h 21m 59s
True Declination
0° 00' 00"
Sunlit
Object was in daylight at epoch
Visualization orbit readout
Latitude
Unknown
Longitude
Unknown
Altitude
Unknown
Speed
Unknown
Apparent Right ascension
Unknown
Apparent Declination
Unknown
Sunlit
N/A
Visualization observer readout
Local Sidereal Time
08:32:28
Azimuth
Unknown
Elevation
Unknown
Doppler factor
Unknown
Orbital elements
Apogee altitude
360.883 km
Perigee altitude
359.123 km
Semi-major axis
6,738.14 km
Eccentricity
0.00013
Inclination
53.1579°
RAAN
125.4968°
Arg. of periapsis
90.5378°
True anomaly
269.56403°
Mean anomaly
269.579°
Eccentric anomaly
269.57152°
Mean motion
3.92404 °/min
Orbital period
91.74 mins
BSTAR
0.0000062844
Loading maneuver chart data...
Computing Atmospheric mass density...
Loading historical data...
Loading historical data...
Loading historical data...
Loading historical data...
Loading historical data...
Loading historical data...
Loading historical data...

Documentation

Showing up to 5 results
|